GEFSNGP_con_prob3kmehi_132.txt.gz
EHI
0 0 0 0 0 0 0 0 0 0 1 2 2 2 4 14 30 44 50 54 61 69 71 67 63 55 45 38 33 28 24 20 16 12 8 5 2 1 1 1 0 0 1 0
0 0 0 0 0 0 0 0 0 0 0 1 1 2 6 15 28 42 51 56 62 71 74 71 65 58 52 45 39 32 26 21 18 14 10 6 3 3 4 4 2 1 2 2
0 0 0 0 0 0 0 0 0 0 0 1 1 3 9 17 27 39 50 59 68 74 76 74 69 63 59 54 47 39 29 23 21 18 13 8 5 5 7 7 4 4 4 4
0 0 0 0 0 0 1 1 1 1 1 2 3 4 9 17 29 38 47 62 74 77 76 76 73 68 63 57 52 43 33 26 23 19 15 11 7 7 8 8 7 6 6 5
0 0 0 0 1 1 2 4 5 6 7 7 8 7 10 21 33 43 51 65 76 74 72 76 77 72 66 59 51 42 34 29 25 20 17 13 10 10 10 9 8 7 6 6
0 0 0 1 2 2 3 7 13 17 17 15 13 13 18 27 38 50 61 71 74 71 72 78 79 75 68 61 51 42 37 33 28 24 20 17 16 17 16 13 10 8 7 8
0 0 1 2 3 4 6 12 19 22 21 18 15 15 23 32 42 55 66 70 72 73 77 82 82 78 72 64 54 46 41 38 34 30 25 21 23 24 21 16 12 10 9 9
0 1 2 3 4 7 10 15 17 17 16 14 12 13 22 34 44 56 63 64 66 75 82 84 82 79 74 69 60 51 45 43 41 36 27 24 27 27 22 17 14 11 9 8
2 3 5 5 5 5 8 10 10 10 10 9 10 14 22 34 44 52 58 58 60 70 79 81 80 78 74 71 64 56 51 48 46 40 30 25 25 24 19 15 11 8 5 4
2 3 4 4 3 3 4 5 5 7 8 9 13 19 27 34 42 50 56 58 60 66 72 74 73 72 71 69 65 58 54 51 47 40 31 25 21 16 12 10 7 4 2 2
1 1 2 2 2 2 3 4 5 6 8 11 17 25 30 35 42 51 57 60 62 65 69 68 66 66 65 65 63 57 52 48 41 32 25 20 14 8 6 5 4 2 2 3
0 0 0 1 2 2 3 4 5 7 8 11 16 24 29 35 43 50 54 57 59 63 65 64 61 61 61 61 60 55 48 40 30 20 14 10 6 3 2 2 1 1 1 1
0 0 0 1 1 1 1 2 4 7 8 10 13 17 22 30 38 43 45 47 48 51 53 53 51 51 52 53 53 49 39 28 20 13 8 4 3 2 1 1 1 0 0 0
0 0 0 0 0 0 1 1 2 5 7 10 11 12 17 23 28 30 31 33 34 34 36 36 34 35 38 39 39 35 25 17 14 11 7 3 3 3 3 2 1 0 0 0
0 0 0 0 0 0 1 1 1 3 6 9 11 14 18 21 21 20 20 22 24 25 24 22 20 21 23 24 24 22 16 10 9 9 7 4 3 3 2 1 1 0 0 0
0 0 0 0 0 1 1 2 3 5 6 8 11 14 17 17 16 15 16 18 21 22 21 18 15 14 13 13 14 14 11 6 5 6 6 4 2 1 1 0 0 0 0 0
0 0 0 0 0 1 2 2 5 7 6 7 10 11 11 11 11 12 14 16 17 18 18 17 14 11 10 10 9 9 7 3 3 4 4 3 1 0 1 1 1 1 0 0
0 0 0 0 0 1 2 2 4 5 4 5 7 7 8 9 10 11 13 14 13 12 12 13 12 10 9 8 6 5 4 2 2 3 3 3 2 1 1 1 1 0 0 0
0 0 0 0 1 2 2 2 2 2 2 3 5 7 8 9 10 11 12 12 10 9 8 7 6 6 5 3 3 3 2 1 1 1 2 3 3 2 1 1 0 0 0 0
0 1 1 1 1 2 3 2 1 0 0 1 3 5 7 8 8 9 9 9 8 7 6 3 1 1 1 0 0 1 1 0 0 0 1 1 2 2 1 0 0 0 0 0
1 1 1 1 1 1 2 1 0 0 0 0 1 3 4 5 6 7 7 6 5 5 3 1 0 0 0 0 0 0 0 0 0 0 0 0 1 1 0 0 0 0 0 0
0 1 1 0 0 0 0 0 0 0 1 0 0 1 2 2 3 4 4 4 3 2 1 0 0 0 0 0 0 0 0 0 0 0 0 0 0 0 0 0 0 0 0 0
0 0 0 0 0 0 0 0 0 0 0 0 0 1 1 1 1 1 2 2 1 0 0 0 0 0 0 0 0 0 0 0 0 0 0 0 0 0 0 0 0 0 0 0
0 0 0 0 0 0 0 0 0 0 0 0 0 1 0 0 0 0 0 0 0 0 0 0 0 0 0 0 0 0 0 0 0 0 0 0 0 0 0 0 0 0 0 0
0 0 0 0 0 0 0 0 0 0 0 0 0 0 0 0 0 0 0 0 0 0 0 0 0 0 0 0 0 0 0 0 0 0 0 0 0 0 0 0 0 0 0 0
0 0 0 0 0 0 0 0 0 0 0 0 0 0 0 0 0 0 0 0 0 0 0 0 0 0 0 0 0 0 0 0 0 0 0 0 0 0 0 0 0 0 0 0
0 0 0 0 0 0 0 0 0 0 0 0 0 0 0 0 0 0 0 0 0 0 0 0 0 0 0 0 0 0 0 0 0 0 0 0 0 0 0 0 0 0 0 0

GEFSNGP_con_prob3kmehi_138.txt.gz
EHI
0 0 0 0 0 0 0 0 0 0 0 0 0 1 2 4 6 6 4 5 7 9 8 9 13 17 15 9 3 1 0 0 0 0 0 0 0 0 0 0 0 0 0 0
0 0 0 0 0 0 0 0 1 1 1 0 0 1 3 4 6 8 7 6 7 9 10 10 13 17 15 9 5 3 2 0 0 0 0 0 0 0 0 0 0 0 0 0
0 0 0 0 0 1 1 1 2 3 2 1 0 1 2 3 5 8 9 8 7 9 11 11 14 16 15 12 8 6 4 2 0 0 0 0 0 0 0 0 0 0 0 0
0 0 0 0 0 1 2 2 4 4 2 1 0 1 1 2 4 7 10 10 8 8 10 11 14 16 16 15 12 9 7 5 2 1 0 0 0 0 0 0 0 0 0 0
0 0 0 0 0 1 2 3 4 4 2 1 0 0 0 2 4 6 10 12 10 9 9 9 12 15 16 16 14 11 9 8 5 2 1 0 0 0 0 0 0 0 0 0
0 0 0 0 1 2 1 1 2 3 2 1 1 1 1 2 3 5 8 10 10 10 9 9 11 13 15 16 15 12 10 8 6 3 1 0 0 0 0 0 0 0 0 0
0 0 0 0 1 2 1 0 1 2 2 1 1 2 3 3 4 4 5 7 9 10 12 14 16 17 16 16 16 13 10 8 7 4 1 0 0 0 0 0 0 0 0 0
0 0 0 0 1 1 0 0 0 1 2 2 2 3 4 4 3 4 6 7 9 11 14 19 22 22 18 15 15 14 11 9 8 6 2 0 0 0 0 0 0 0 0 0
0 0 0 0 0 1 0 0 0 1 2 2 3 4 4 3 4 6 8 9 11 14 16 19 23 23 17 13 14 13 11 9 9 6 3 1 1 0 0 0 0 0 0 0
0 0 0 0 0 0 0 1 1 1 1 1 2 3 3 3 4 7 10 11 12 15 16 17 18 18 14 11 11 11 10 9 8 6 4 3 2 1 0 0 0 0 0 0
0 0 0 0 0 0 1 2 2 1 0 0 1 2 1 1 3 6 10 11 12 14 15 14 13 11 9 7 8 8 8 8 8 7 4 2 2 1 0 0 0 0 0 0
0 0 0 0 0 0 1 2 3 2 0 0 0 0 0 0 1 4 7 11 12 13 13 11 10 7 5 4 4 5 5 5 6 5 2 1 1 0 0 0 0 0 0 0
0 0 0 0 0 0 0 1 2 2 1 1 0 1 1 1 2 4 6 9 12 12 11 10 8 5 3 3 3 3 2 2 2 2 1 0 0 0 0 0 0 0 0 0
0 0 0 0 0 0 0 0 1 1 1 1 1 2 4 5 6 6 6 7 9 9 9 9 7 4 3 3 2 1 0 0 0 0 0 0 0 0 0 0 0 0 0 0
0 0 0 0 0 0 0 0 0 0 1 1 1 2 4 6 7 7 6 5 6 7 7 7 5 4 3 1 1 0 0 0 0 0 0 0 0 0 0 0 0 0 0 0
0 0 0 0 0 0 0 0 0 0 0 0 0 1 2 3 4 4 4 4 5 5 5 4 3 2 2 1 0 0 0 0 0 0 0 0 0 0 0 0 0 0 0 0
0 0 0 0 0 0 0 0 0 0 0 0 0 0 0 0 1 3 3 3 2 3 3 2 1 1 1 0 0 0 0 0 0 0 0 0 0 0 0 0 0 0 0 0
0 0 0 0 0 0 0 0 0 0 0 0 0 0 0 0 1 3 3 2 1 1 1 0 0 0 0 0 0 0 0 0 0 0 0 0 0 0 0 0 0 0 0 0
0 0 0 0 0 0 0 0 0 0 0 0 0 0 0 1 2 3 3 1 0 0 0 0 0 0 0 0 0 0 0 0 0 0 0 0 0 0 0 0 0 0 0 0
0 0 0 0 0 0 0 0 0 0 0 0 0 0 0 1 3 3 2 1 0 0 0 0 0 0 0 0 0 0 0 0 0 0 0 0 0 0 0 0 0 0 0 0
0 0 0 0 0 0 0 0 0 0 0 0 0 0 1 2 2 2 2 1 0 0 0 0 0 0 0 0 0 0 0 0 0 0 0 0 0 0 0 0 0 0 0 0
0 0 0 0 0 0 0 0 0 0 0 0 0 0 1 1 1 1 1 0 0 0 0 0 0 0 0 0 0 0 0 0 0 0 0 0 0 0 0 0 0 0 0 0
0 0 0 0 0 0 0 0 0 0 0 0 0 0 0 0 0 0 0 0 0 0 0 0 0 0 0 0 0 0 0 0 0 0 0 0 0 0 0 0 0 0 0 0
0 0 0 0 0 0 0 0 0 0 0 0 0 0 0 0 0 0 0 0 0 0 0 0 0 0 0 0 0 0 0 0 0 0 0 0 0 0 0 0 0 0 0 0
0 0 0 0 0 0 0 0 0 0 0 0 0 0 0 0 0 0 0 0 0 0 0 0 0 0 0 0 0 0 0 0 0 0 0 0 0 0 0 0 0 0 0 0
0 0 0 0 0 0 0 0 0 0 0 0 0 0 0 0 0 0 0 0 0 0 0 0 0 0 0 0 0 0 0 0 0 0 0 0 0 0 0 0 0 0 0 0
0 0 0 0 0 0 0 0 0 0 0 0 0 0 0 0 0 0 0 0 0 0 0 0 0 0 0 0 0 0 0 0 0 0 0 0 0 0 0 0 0 0 0 0

GEFSNGP_con_prob3kmehi_144.txt.gz
EHI
0 0 0 0 0 0 0 0 0 0 0 0 0 0 0 1 2 3 3 2 1 0 1 2 2 3 2 1 0 0 0 0 0 0 0 0 0 0 0 0 0 0 0 0
0 0 0 0 0 0 0 0 0 0 0 0 0 0 0 0 1 3 3 3 1 1 1 1 1 2 1 0 0 0 0 0 0 0 0 0 0 0 0 0 0 0 0 0
0 0 0 0 0 0 0 0 0 0 0 0 0 0 0 0 1 2 3 3 3 3 2 1 0 0 0 0 0 0 0 0 0 0 0 0 0 0 0 0 0 0 0 0
0 0 0 0 0 0 0 0 0 0 0 0 0 0 0 0 0 1 2 3 4 4 3 2 1 0 1 2 1 0 0 0 0 0 0 0 0 0 0 0 0 0 0 0
0 0 0 0 0 0 0 0 0 0 0 0 0 0 0 0 0 0 1 1 2 3 2 2 1 0 2 3 2 0 0 0 0 0 0 0 0 0 0 0 0 0 0 0
0 0 0 0 0 0 0 0 0 0 0 0 0 0 0 0 0 0 0 0 1 1 1 1 0 1 2 3 2 1 0 0 0 0 0 0 0 0 0 0 0 0 0 0
0 0 0 0 0 0 0 0 0 0 0 0 0 0 0 0 0 0 0 0 0 0 0 0 0 1 2 3 3 2 1 0 0 0 0 0 0 0 0 0 0 0 0 0
0 0 0 0 0 0 0 0 0 0 0 0 0 1 1 1 0 0 0 0 0 0 0 0 0 1 2 3 3 2 1 0 0 0 0 0 0 0 0 0 0 0 0 0
0 0 0 0 0 0 0 0 0 0 0 0 0 1 2 2 1 0 0 0 0 0 0 0 0 0 1 1 2 2 1 0 0 0 1 0 0 0 0 0 0 0 0 0
0 0 0 0 0 0 0 0 0 0 0 0 0 0 1 1 1 0 0 0 0 0 0 0 0 0 0 0 1 1 0 0 0 0 0 0 0 0 0 0 0 0 0 0
0 0 0 0 0 0 0 0 0 0 0 0 0 0 0 0 0 0 0 0 0 0 0 0 0 0 0 0 0 0 0 1 0 0 0 0 0 0 0 0 0 0 0 0
0 0 0 0 0 0 0 0 0 0 0 0 0 0 0 0 0 0 0 0 0 0 0 0 0 0 0 0 0 0 0 0 0 0 0 0 0 0 0 0 0 0 0 0
0 0 0 0 0 0 0 0 0 0 0 0 0 0 0 0 0 0 0 0 0 0 0 0 0 0 0 0 0 0 0 0 0 0 0 0 0 0 0 0 0 0 0 0
0 0 0 0 0 0 0 0 0 0 0 0 0 0 0 0 0 0 0 0 0 0 0 0 0 0 0 0 0 0 0 0 0 0 0 0 0 0 0 0 0 0 0 0
0 0 0 0 0 0 0 0 0 0 0 0 0 0 0 0 0 0 0 0 0 0 0 0 0 0 0 0 0 0 0 0 0 0 0 0 0 0 0 0 0 0 0 0
0 0 0 0 0 0 0 0 0 0 0 0 0 0 0 0 0 0 0 0 0 0 0 0 0 0 0 0 0 0 0 0 0 0 0 0 0 0 0 0 0 0 0 0
0 0 0 0 0 0 0 0 0 0 0 0 0 0 0 0 0 0 0 0 0 0 0 0 0 0 0 0 0 0 0 0 0 0 0 0 0 0 0 0 0 0 0 0
0 0 0 0 0 0 0 0 0 0 0 0 0 0 0 0 0 0 0 0 0 0 0 0 0 0 0 0 0 0 0 0 0 0 0 0 0 0 0 0 0 0 0 0
0 0 0 0 0 0 0 0 0 0 0 0 0 0 0 0 0 0 0 0 0 0 0 0 0 0 0 0 0 0 0 0 0 0 0 0 0 0 0 0 0 0 0 0
0 0 0 0 0 0 0 0 0 0 0 0 0 0 0 0 0 0 0 0 0 0 0 0 0 0 0 0 0 0 0 0 0 0 0 0 0 0 0 0 0 0 0 0
0 0 0 0 0 0 0 0 0 0 0 0 0 0 0 0 0 0 0 0 0 0 0 0 0 0 0 0 0 0 0 0 0 0 0 0 0 0 0 0 0 0 0 0
0 0 0 0 0 0 0 0 0 0 0 0 0 0 0 0 0 0 0 0 0 0 0 0 0 0 0 0 0 0 0 0 0 0 0 0 0 0 0 0 0 0 0 0
0 0 0 0 0 0 0 0 0 0 0 0 0 0 0 0 0 0 0 0 0 0 0 0 0 0 0 0 0 0 0 0 0 0 0 0 0 0 0 0 0 0 0 0
0 0 0 0 0 0 0 0 0 0 0 0 0 0 0 0 0 0 0 0 0 0 0 0 0 0 0 0 0 0 0 0 0 0 0 0 0 0 0 0 0 0 0 0
0 0 0 0 0 0 0 0 0 0 0 0 0 0 0 0 0 0 0 0 0 0 0 0 0 0 0 0 0 0 0 0 0 0 0 0 0 0 0 0 0 0 0 0
0 0 0 0 0 0 0 0 0 0 0 0 0 0 0 0 0 0 0 0 0 0 0 0 0 0 0 0 0 0 0 0 0 0 0 0 0 0 0 0 0 0 0 0
0 0 0 0 0 0 0 0 0 0 0 0 0 0 0 0 0 0 0 0 0 0 0 0 0 0 0 0 0 0 0 0 0 0 0 0 0 0 0 0 0 0 0 0

GEFSNGP_con_prob3kmehi_150.txt.gz
EHI
0 0 0 0 0 0 0 0 0 0 0 0 0 0 1 2 3 5 12 20 24 24 24 24 20 14 9 7 7 5 4 5 7 8 10 10 10 7 5 3 2 3 3 2
0 0 0 0 0 0 0 0 0 0 0 1 1 1 1 2 3 5 10 17 21 22 24 24 20 16 11 10 9 6 5 6 8 11 13 12 10 7 5 4 3 3 3 1
0 0 0 0 0 0 0 1 2 2 2 3 3 3 2 2 3 4 6 12 18 20 22 22 17 15 14 12 11 8 5 7 9 11 14 13 9 7 6 6 5 4 3 1
0 0 0 0 0 0 1 3 5 4 4 4 4 3 3 3 2 3 4 9 15 19 18 15 12 11 12 12 11 8 6 6 8 10 12 12 10 8 8 7 6 5 3 1
0 0 0 0 0 1 1 2 4 3 2 2 2 1 2 2 1 2 3 6 12 15 14 10 9 10 11 12 11 9 7 7 8 9 10 11 11 11 10 9 7 5 3 2
0 0 0 0 0 0 0 1 1 1 0 0 0 0 1 1 1 3 4 6 9 11 12 12 13 14 14 14 13 9 8 9 10 11 13 13 13 13 12 10 8 5 3 3
0 0 0 0 0 0 1 1 1 0 0 0 0 0 0 1 4 6 7 7 8 10 13 16 21 23 21 18 14 12 11 10 11 13 15 15 16 16 15 12 9 6 4 4
0 0 0 0 0 1 2 3 2 1 0 0 0 1 1 4 10 12 11 11 10 11 15 18 23 27 27 23 21 21 22 18 16 18 18 17 19 20 19 14 10 8 6 5
0 0 0 1 1 1 2 2 1 1 0 0 1 2 2 7 13 15 15 15 12 12 13 15 18 23 25 26 28 32 32 28 25 23 21 19 20 20 18 14 11 9 8 7
0 0 0 1 1 1 1 1 0 0 0 0 1 2 2 5 10 13 15 16 14 11 10 10 12 15 18 22 28 34 35 32 29 26 24 23 21 18 16 14 12 12 11 10
0 0 0 1 1 0 0 0 0 0 0 0 0 1 1 3 7 10 12 13 14 12 10 8 9 10 13 18 26 34 35 31 27 25 23 23 21 16 13 11 10 11 11 8
0 0 0 0 0 0 0 0 0 0 0 0 0 0 1 3 7 9 9 10 12 13 11 10 9 10 13 18 26 33 33 28 23 19 18 17 16 12 7 5 4 5 5 3
0 0 0 0 0 0 0 0 0 0 0 0 0 1 1 3 6 8 8 7 10 11 11 11 11 13 16 20 25 28 26 20 16 13 12 11 11 8 4 2 1 0 0 0
0 0 0 1 0 0 0 0 0 1 1 0 1 2 3 3 4 6 6 6 8 9 9 10 11 14 18 19 20 20 17 14 12 11 9 9 10 9 7 5 3 2 1 0
0 0 0 0 0 0 0 0 0 1 1 1 1 3 3 3 3 3 4 5 6 7 7 8 9 12 14 15 14 13 12 12 12 11 10 10 10 9 8 6 5 4 2 1
0 0 0 0 0 0 0 0 0 1 1 1 1 2 2 2 1 1 1 2 2 3 3 5 7 8 9 10 9 8 8 7 9 10 9 8 7 6 6 6 5 5 4 2
0 0 0 0 0 0 0 0 0 0 0 0 1 1 1 1 0 0 0 0 0 0 1 2 4 5 5 5 6 6 5 4 5 7 7 6 5 5 5 5 4 5 4 4
0 0 0 0 0 0 0 0 0 0 0 0 0 0 0 0 0 1 1 0 0 0 0 0 1 3 3 2 3 4 5 4 4 4 4 4 4 4 4 4 3 3 3 2
0 0 0 1 1 1 1 0 0 0 0 0 0 0 0 0 1 2 2 1 0 0 0 0 0 1 2 1 2 3 3 3 2 2 2 2 2 2 2 2 1 1 1 0
0 0 0 1 2 2 1 0 0 0 0 0 0 0 0 0 1 2 2 1 0 0 0 0 0 0 1 1 1 1 1 1 1 0 0 0 0 0 0 1 1 1 0 0
0 0 0 1 1 1 0 0 0 0 0 0 0 0 0 0 1 2 2 1 0 0 0 0 0 0 0 0 0 0 1 2 1 0 0 0 0 0 0 1 1 1 0 0
0 0 0 0 0 0 0 0 0 0 0 0 0 0 0 0 1 1 1 1 1 0 0 0 0 0 0 0 0 0 1 1 1 0 0 0 0 0 0 0 0 0 0 0
0 0 0 0 0 1 0 0 0 0 0 0 0 0 0 0 1 1 1 2 1 0 0 0 0 0 0 0 0 0 0 0 0 0 0 0 0 0 0 0 0 0 0 0
0 0 0 0 0 0 0 0 0 0 0 0 0 0 0 0 0 0 1 1 1 0 0 0 0 0 0 0 0 0 0 0 0 0 0 0 0 0 0 0 0 0 0 0
0 0 0 0 0 0 0 0 0 0 0 0 0 0 0 0 0 0 0 0 0 0 0 0 0 0 0 0 0 0 0 0 0 0 0 0 0 0 0 0 0 0 0 0
0 0 0 0 0 0 0 0 0 0 0 0 0 0 0 0 0 0 0 0 0 0 0 0 0 0 0 0 0 0 0 0 0 0 0 0 0 0 0 0 0 0 0 0
0 0 0 0 0 0 0 0 0 0 0 0 0 0 0 0 0 0 0 0 0 0 0 0 0 0 0 0 0 0 0 0 0 0 0 0 0 0 0 0 0 0 0 0

GEFSNGP_con_prob3kmehi_156.txt.gz
EHI
0 0 0 0 0 0 0 0 0 1 2 2 2 3 4 8 15 21 29 42 53 58 58 59 62 62 58 52 46 42 39 36 35 32 27 24 25 27 25 22 21 20 18 16
0 0 0 0 0 0 0 0 0 1 3 4 4 5 7 11 17 23 31 42 52 57 58 58 61 63 61 58 54 48 43 40 38 35 29 26 26 28 26 23 22 21 17 13
0 0 0 0 0 0 0 0 1 2 3 6 7 8 10 14 18 24 32 43 52 55 56 56 59 62 62 60 58 52 44 42 41 38 33 28 27 30 32 28 24 22 16 10
0 0 0 0 0 1 1 0 1 2 3 5 7 9 11 13 17 21 29 43 53 55 55 56 58 59 59 58 56 50 43 43 45 44 38 33 32 38 43 40 32 26 18 11
0 0 0 0 0 2 2 2 2 3 2 3 6 8 10 13 16 20 26 39 52 56 56 59 60 58 58 58 55 49 45 47 53 53 48 43 43 51 56 53 43 31 20 13
0 0 0 0 0 2 3 3 3 3 3 4 6 8 11 14 19 22 26 34 45 53 57 61 61 58 56 54 53 50 48 53 60 64 60 55 57 63 64 58 45 30 20 16
0 0 0 0 0 2 6 8 7 5 4 6 8 10 12 17 21 24 25 28 35 45 53 59 60 58 54 52 51 50 50 55 63 66 62 58 63 69 65 53 39 27 20 17
1 2 2 3 3 6 12 14 11 8 6 7 9 11 14 19 24 25 24 25 29 38 46 52 56 57 57 56 53 51 51 54 59 62 57 53 60 64 57 43 30 24 21 18
5 6 6 6 6 8 9 11 11 10 8 7 8 10 13 20 25 25 24 25 28 33 39 44 49 54 57 58 56 53 54 55 57 58 54 50 51 50 43 32 22 18 18 17
9 8 7 5 5 4 3 3 5 7 7 7 7 8 12 17 21 22 23 24 25 29 35 40 43 47 53 55 55 55 56 56 55 54 52 48 42 36 31 25 19 17 16 15
6 6 5 4 2 1 0 0 1 3 5 6 6 7 10 14 16 17 19 21 23 25 29 33 35 40 46 51 55 56 57 57 54 50 46 43 36 26 21 19 15 14 13 12
2 3 4 4 3 2 1 1 1 3 4 6 7 8 11 13 14 14 16 21 22 22 22 24 27 31 38 45 51 53 53 53 50 45 42 38 30 21 14 9 7 6 6 6
0 1 3 4 3 2 2 2 3 3 3 5 7 8 10 12 13 14 15 18 19 17 18 19 19 24 31 38 42 44 43 42 41 39 36 31 25 18 11 5 1 1 1 2
0 0 1 1 1 2 2 2 2 2 1 2 5 6 8 11 13 13 13 13 14 13 14 16 16 19 25 30 32 33 31 29 31 32 29 25 21 17 12 7 3 1 1 0
0 0 0 0 1 1 1 1 1 1 1 2 4 5 6 8 10 9 7 7 8 9 10 11 12 15 19 22 23 22 19 17 22 25 24 22 20 15 10 8 6 4 2 1
0 0 0 0 1 1 0 0 1 2 2 4 6 6 5 6 6 5 3 3 4 4 6 8 8 8 11 15 18 16 11 8 12 18 19 19 17 13 9 8 7 5 2 1
0 0 0 0 0 0 0 1 2 3 4 5 6 5 5 5 4 2 2 2 1 2 4 6 5 4 6 10 14 13 8 4 6 10 13 14 13 11 10 7 5 4 2 1
0 0 0 0 0 0 0 1 2 4 5 5 4 4 4 3 2 1 2 2 2 2 3 3 3 2 3 6 8 9 6 4 4 6 7 7 7 8 7 4 3 2 1 0
0 0 0 0 0 0 0 1 3 3 3 3 3 3 3 1 0 1 2 3 3 3 2 1 1 1 2 2 3 5 5 4 5 4 4 3 3 3 3 2 1 1 0 0
0 0 0 0 0 0 1 2 2 2 2 1 1 2 2 1 0 1 2 3 3 2 2 1 0 0 0 0 0 2 3 3 3 3 2 2 1 1 1 0 0 0 0 0
0 0 0 0 0 1 2 2 2 2 1 0 0 1 1 0 0 0 1 1 2 2 1 0 0 0 0 0 0 0 1 1 1 1 1 1 1 0 0 0 0 0 0 0
0 0 0 0 0 1 2 3 3 3 1 0 0 0 0 0 0 0 0 1 1 1 0 0 0 0 0 0 0 0 0 0 1 0 0 1 1 0 0 0 0 0 0 0
0 0 0 0 0 1 1 3 3 2 0 0 0 0 0 0 0 0 0 0 0 0 0 0 0 0 0 0 0 0 0 0 0 0 0 1 1 0 0 0 0 0 0 0
0 0 0 0 0 0 1 1 1 0 0 0 0 0 0 0 0 0 0 0 0 0 0 0 0 0 0 0 0 0 0 0 0 0 0 1 1 0 0 0 0 0 0 0
0 0 0 0 0 0 0 0 0 0 0 0 0 0 0 0 0 0 0 0 0 0 0 0 0 0 0 0 0 0 0 0 0 0 0 0 0 0 0 0 0 0 0 0
0 0 0 0 0 0 0 0 0 0 0 0 0 0 0 0 0 0 0 0 0 0 0 0 0 0 0 0 0 0 0 0 0 0 0 0 0 0 0 0 0 0 0 0
0 0 0 0 0 0 0 0 0 0 0 0 0 0 0 0 0 0 0 0 0 0 0 0 0 0 0 0 0 0 0 0 0 0 0 0 0 0 0 0 0 0 0 0

GEFSNGP_con_prob3kmehi_162.txt.gz
EHI
0 0 0 0 0 0 0 0 0 0 0 0 0 1 4 9 12 15 19 24 28 27 24 19 16 17 22 26 27 25 22 18 13 10 8 7 7 5 3 2 2 2 2 1
0 0 0 0 0 0 0 0 0 0 0 0 0 0 3 7 13 16 17 21 25 25 22 19 15 16 20 24 25 24 21 16 11 7 5 5 5 3 2 1 1 1 1 0
0 0 0 0 0 0 0 0 0 0 0 0 0 0 2 7 13 15 15 18 23 23 21 18 15 13 15 18 20 20 18 13 7 3 2 2 2 2 1 0 0 0 0 0
0 0 0 0 0 0 0 0 0 0 0 1 2 2 3 7 12 14 15 18 21 21 20 19 16 12 12 13 14 14 13 9 5 2 0 1 1 1 1 1 1 1 1 0
0 0 0 0 0 0 0 1 2 2 2 4 5 5 4 6 9 12 14 17 17 17 19 20 17 14 13 12 11 9 7 6 3 1 0 0 1 2 3 3 3 3 2 1
0 0 0 0 0 0 0 1 2 3 5 6 6 5 5 6 8 9 12 14 13 15 19 20 18 15 14 13 9 5 3 3 3 2 2 1 1 3 4 4 4 4 3 2
0 0 0 1 1 1 0 1 2 3 5 6 6 5 6 8 9 10 12 13 14 15 17 17 17 16 14 12 9 5 4 5 6 5 4 3 3 3 4 4 4 3 3 3
0 0 0 1 1 1 0 1 2 3 4 7 8 7 7 8 10 12 14 14 14 14 13 13 15 16 14 12 10 7 6 8 9 8 6 5 4 4 5 4 3 3 3 3
0 0 0 1 1 1 1 2 3 3 5 8 8 7 6 6 8 11 12 12 13 13 11 10 11 12 11 11 10 10 10 11 11 9 7 6 6 6 7 6 5 4 4 4
0 0 1 2 2 2 2 2 3 4 6 8 7 5 5 6 7 8 9 10 11 13 12 11 9 8 7 7 8 10 12 14 13 11 8 6 6 7 7 8 7 6 6 6
0 0 1 2 2 1 1 2 4 5 7 9 8 6 5 6 7 7 8 9 10 12 12 11 9 7 5 4 6 8 11 15 14 11 7 4 4 4 4 5 6 6 5 5
0 0 1 3 2 1 0 1 3 4 6 9 9 6 5 6 6 7 7 7 8 9 10 9 7 6 4 3 4 4 7 10 11 8 5 3 2 1 1 1 2 2 2 3
0 0 1 2 2 1 0 0 2 4 5 5 5 4 4 4 5 6 6 6 6 6 7 6 5 4 4 3 2 2 3 5 6 4 3 2 1 0 0 0 0 0 0 1
0 0 0 1 1 1 0 0 2 2 2 1 1 1 3 3 4 5 5 4 4 3 3 3 4 4 3 3 2 1 1 2 2 1 0 0 0 0 0 0 0 0 0 0
0 0 0 0 0 0 0 0 1 1 0 0 0 1 2 2 2 2 2 1 1 1 1 1 2 2 3 3 2 1 0 1 1 0 0 0 0 0 0 0 0 0 0 0
0 0 0 0 0 0 0 0 0 0 0 0 0 0 1 1 1 0 0 0 0 0 0 0 0 1 2 2 2 2 1 0 0 0 0 0 1 0 0 0 0 0 0 0
0 0 0 0 0 0 0 0 0 0 0 0 0 0 0 0 0 0 0 0 0 0 0 0 0 0 1 1 1 1 1 0 0 0 0 0 0 0 0 0 0 0 0 0
0 0 0 0 0 0 0 0 0 0 0 0 0 0 0 0 0 0 0 0 0 0 0 0 0 0 0 0 0 0 0 0 0 0 0 0 0 0 0 0 0 0 0 0
0 0 0 0 0 0 0 0 0 0 0 0 0 0 0 0 0 0 0 0 0 0 0 0 0 0 0 0 0 0 0 0 0 0 0 0 0 0 0 0 0 0 0 0
0 0 0 0 0 0 0 0 0 0 0 0 0 0 0 0 0 0 0 0 0 0 0 0 0 0 0 0 0 0 0 0 0 0 0 0 0 0 0 0 0 0 0 0
0 0 0 0 0 0 0 0 0 0 0 0 0 0 0 0 0 0 0 0 0 0 0 0 0 0 0 0 0 0 0 0 0 0 0 0 0 0 0 0 0 0 0 0
0 0 0 0 0 0 0 0 0 0 0 0 0 0 0 0 0 0 0 0 0 0 0 0 0 0 0 0 0 0 0 0 0 0 0 0 0 0 0 0 0 0 0 0
0 0 0 0 0 0 0 0 0 0 0 0 0 0 0 0 0 0 0 0 0 0 0 0 0 0 0 0 0 0 0 0 0 0 0 0 0 0 0 0 0 0 0 0
0 0 0 0 0 0 0 0 0 0 0 0 0 0 0 0 0 0 0 0 0 0 0 0 0 0 0 0 0 0 0 0 0 0 0 0 0 0 0 0 0 0 0 0
0 0 0 0 0 0 0 0 0 0 0 0 0 0 0 0 0 0 0 0 0 0 0 0 0 0 0 0 0 0 0 0 0 0 0 0 0 0 0 0 0 0 0 0
0 0 0 0 0 0 0 0 0 0 0 0 0 0 0 0 0 0 0 0 0 0 0 0 0 0 0 0 0 0 0 0 0 0 0 0 0 0 0 0 0 0 0 0
0 0 0 0 0 0 0 0 0 0 0 0 0 0 0 0 0 0 0 0 0 0 0 0 0 0 0 0 0 0 0 0 0 0 0 0 0 0 0 0 0 0 0 0

GEFSNGP_con_prob3kmehi_168.txt.gz
EHI
0 0 0 0 0 0 0 0 0 0 0 0 0 0 1 3 5 7 8 7 5 6 9 14 15 14 15 16 16 16 16 14 13 13 12 11 9 7 5 4 3 3 3 3
0 0 0 0 0 0 0 0 0 0 0 0 0 0 1 3 6 7 6 4 3 3 6 10 12 13 13 13 12 13 13 13 12 12 11 10 8 6 4 3 2 2 2 1
0 0 0 0 0 0 0 0 0 0 0 0 0 0 1 3 6 6 4 2 1 1 2 5 8 10 10 9 9 9 9 10 10 8 7 6 4 3 3 2 1 1 1 0
0 0 0 0 0 0 0 0 0 0 0 0 0 0 0 2 4 4 2 1 0 0 0 2 4 6 7 7 7 7 7 7 7 5 3 2 1 1 1 1 0 0 0 0
0 0 0 0 0 0 0 0 0 0 0 0 0 1 0 0 1 1 1 0 0 0 0 1 3 4 5 6 6 5 4 5 5 5 3 1 0 0 0 0 0 0 0 0
0 0 0 0 0 0 0 0 0 1 1 1 0 0 0 0 0 0 0 0 1 1 1 1 2 3 4 4 5 4 3 4 5 5 4 2 1 0 0 0 0 0 0 0
0 0 0 0 0 0 0 0 0 1 1 1 0 0 0 0 1 1 1 0 1 2 2 2 3 4 3 3 3 3 2 3 4 5 4 3 1 0 0 0 0 0 0 0
0 0 0 0 0 0 0 0 0 0 0 0 0 1 1 1 1 2 1 1 2 3 2 2 4 5 4 3 3 2 1 1 2 3 3 1 1 0 0 0 0 0 0 0
0 0 0 0 0 0 0 0 0 0 0 0 0 1 2 2 2 2 2 2 3 3 3 2 4 5 4 3 3 2 1 0 0 1 1 0 0 0 0 0 0 1 1 1
0 0 0 0 0 0 0 0 0 0 0 0 1 1 1 1 2 3 4 3 3 3 3 2 3 4 3 3 3 2 1 0 0 0 0 0 1 1 0 0 1 1 2 2
0 0 0 0 0 0 1 1 0 0 0 0 2 2 2 1 1 3 4 3 3 3 2 2 3 3 3 4 3 2 1 0 0 0 1 1 1 1 0 0 1 1 1 1
0 0 0 0 0 1 2 2 1 0 0 0 1 3 3 2 1 1 2 2 2 2 1 2 3 3 3 3 3 2 1 0 0 0 0 0 1 1 0 0 0 0 0 0
0 0 0 0 0 1 3 3 1 0 0 0 0 1 1 1 0 1 2 3 3 3 2 2 2 2 2 2 1 1 1 0 0 0 0 0 0 0 0 0 0 0 0 0
0 0 0 0 1 2 2 2 1 0 0 0 0 0 0 0 0 1 2 3 3 3 3 2 1 1 1 0 0 0 0 0 0 0 0 0 0 0 0 0 0 0 0 0
0 0 0 0 1 1 1 1 1 0 0 0 0 0 0 0 0 1 2 3 3 3 3 1 0 0 0 0 0 0 0 0 0 0 0 0 0 0 0 0 0 0 0 0
0 0 0 0 0 0 0 0 0 0 0 0 0 0 0 0 0 1 2 2 2 2 2 1 0 0 0 0 0 0 0 0 0 0 0 0 0 0 0 0 0 0 0 0
0 0 0 0 0 0 0 0 0 0 0 0 0 0 0 0 0 0 1 1 0 1 1 0 0 0 0 0 0 0 0 0 0 0 0 0 0 0 0 0 0 0 0 0
0 0 0 0 0 0 0 0 0 0 0 0 0 0 0 0 0 0 0 0 0 0 0 0 0 0 0 0 0 0 0 0 0 0 0 0 0 0 0 0 0 0 0 0
0 0 0 0 0 0 0 0 0 0 0 0 0 0 0 0 0 0 0 0 0 0 0 0 0 0 0 0 0 0 0 0 0 0 0 0 0 0 0 0 0 0 0 0
0 0 0 0 0 0 0 0 0 0 0 0 0 0 0 0 0 0 0 0 0 0 0 0 0 0 0 0 0 0 0 0 0 0 0 0 0 0 0 0 0 0 0 0
0 0 0 0 0 0 0 0 0 0 0 0 0 0 0 0 0 0 0 0 0 0 0 0 0 0 0 0 0 0 0 0 0 0 0 0 0 0 0 0 0 0 0 0
0 0 0 0 0 0 0 0 0 0 0 0 0 0 0 0 0 0 0 0 0 0 0 0 0 0 0 0 0 0 0 0 0 0 0 0 0 0 0 0 0 0 0 0
0 0 0 0 0 0 0 0 0 0 0 0 0 0 0 0 0 0 0 0 0 0 0 0 0 0 0 0 0 0 0 0 0 0 0 0 0 0 0 0 0 0 0 0
0 0 0 0 0 0 0 0 0 0 0 0 0 0 0 0 0 0 0 0 0 0 0 0 0 0 0 0 0 0 0 0 0 0 0 0 0 0 0 0 0 0 0 0
0 0 0 0 0 0 0 0 0 0 0 0 0 0 0 0 0 0 0 0 0 0 0 0 0 0 0 0 0 0 0 0 0 0 0 0 0 0 0 0 0 0 0 0
0 0 0 0 0 0 0 0 0 0 0 0 0 0 0 0 0 0 0 0 0 0 0 0 0 0 0 0 0 0 0 0 0 0 0 0 0 0 0 0 0 0 0 0
0 0 0 0 0 0 0 0 0 0 0 0 0 0 0 0 0 0 0 0 0 0 0 0 0 0 0 0 0 0 0 0 0 0 0 0 0 0 0 0 0 0 0 0

GEFSNGP_con_prob3kmehi_174.txt.gz
EHI
0 0 0 0 0 0 0 0 0 0 1 3 4 3 4 6 8 12 17 23 28 29 28 26 25 29 32 30 32 34 32 29 27 28 27 24 22 20 17 15 16 17 16 15
0 0 0 0 0 0 0 0 0 0 2 4 4 3 4 6 9 13 17 22 26 27 27 26 28 33 34 32 32 33 30 27 26 28 28 26 25 23 22 19 17 17 17 17
0 0 0 0 0 0 0 0 0 1 3 6 6 5 6 8 10 13 17 21 24 26 27 26 29 34 35 33 31 29 26 23 23 25 25 24 23 24 24 23 21 19 18 18
0 0 0 0 1 1 1 1 2 4 5 6 7 8 8 9 11 13 17 20 22 24 25 25 26 30 33 33 30 26 21 19 19 20 20 19 21 23 24 23 22 20 18 16
0 0 0 0 0 1 2 3 4 5 5 5 6 7 7 7 9 13 17 20 20 20 21 22 23 26 31 32 30 26 20 18 18 18 17 18 22 24 24 22 19 17 15 14
0 0 0 0 0 1 2 3 4 5 4 3 3 5 7 9 11 15 18 20 18 17 19 21 24 27 28 28 28 25 22 21 20 19 18 19 22 24 23 19 15 13 12 11
0 0 0 0 0 1 3 5 6 8 7 6 5 7 11 15 17 20 21 19 17 18 22 24 27 27 25 23 23 24 23 23 23 20 17 17 19 21 19 15 13 12 11 10
0 0 1 2 4 6 7 8 11 12 12 12 11 12 15 20 21 22 21 18 17 19 23 26 26 26 24 19 17 19 20 21 22 20 15 12 14 17 15 13 12 11 11 11
1 1 1 4 9 11 10 11 13 14 16 16 16 17 19 21 22 22 22 21 20 20 23 23 20 21 21 18 16 16 17 17 19 17 12 9 11 13 12 11 10 10 12 13
2 1 1 4 9 13 12 12 13 15 15 16 19 22 22 22 23 24 25 25 24 24 25 23 18 18 21 20 18 17 16 16 16 14 11 9 10 10 11 12 12 12 13 14
2 1 1 3 8 12 13 13 14 15 14 16 20 23 22 24 25 25 26 26 27 27 28 25 20 19 22 22 20 17 16 15 14 12 10 10 10 9 9 9 10 11 11 12
1 1 2 4 7 9 10 12 13 13 14 15 18 20 20 21 23 23 23 23 23 23 24 22 20 20 20 20 18 16 15 16 14 12 11 11 11 8 5 4 4 4 5 5
3 3 3 5 5 5 6 8 10 11 12 14 15 15 14 15 17 17 17 17 16 15 16 17 18 18 17 17 16 16 17 17 16 15 13 12 10 7 4 2 1 0 0 1
3 3 4 4 4 3 3 6 7 9 10 11 12 11 10 10 11 10 10 10 11 11 13 15 16 15 14 13 12 13 15 15 15 14 12 10 8 6 4 3 2 1 1 0
1 2 2 2 1 1 2 4 6 6 7 9 9 9 8 6 6 6 5 6 8 10 12 12 13 13 11 9 8 8 8 9 9 9 7 6 5 4 3 3 3 2 1 1
0 0 1 1 0 0 1 3 3 3 3 5 7 8 7 5 4 4 4 4 6 8 9 9 10 10 9 7 6 4 4 5 5 4 3 3 2 2 2 2 2 1 1 1
0 0 0 0 0 1 1 1 1 0 0 1 4 5 4 3 3 3 4 4 5 6 6 7 7 7 7 6 5 3 3 3 3 2 2 2 1 1 1 1 0 0 0 1
0 0 0 0 0 1 2 1 0 1 1 1 1 2 2 1 1 2 3 3 4 4 4 4 5 4 5 4 3 2 2 2 2 1 1 1 1 0 0 0 0 0 0 0
0 0 0 0 0 1 2 1 1 2 2 2 1 0 0 0 0 1 2 2 2 2 1 1 2 3 2 2 1 1 1 1 1 0 0 0 0 0 0 0 0 0 0 0
0 0 0 0 0 1 2 2 2 2 2 2 1 0 0 0 0 0 1 1 1 1 0 0 1 2 2 1 0 1 1 1 0 0 0 0 0 0 0 0 0 0 0 0
0 0 0 0 0 0 1 1 1 1 1 1 1 0 0 0 0 0 0 0 0 0 0 0 1 2 2 1 1 2 2 2 1 0 0 0 0 0 0 0 0 0 0 0
0 0 0 0 0 0 0 0 0 0 0 0 0 0 0 0 0 0 0 0 0 0 0 0 1 1 1 1 2 3 3 3 2 0 0 0 0 0 0 0 0 0 0 0
0 0 0 0 0 0 0 0 0 0 0 0 0 0 0 0 0 0 0 0 0 0 0 0 0 0 0 1 2 2 2 2 1 0 0 0 0 0 0 0 0 0 0 0
0 0 0 0 0 0 0 0 0 0 0 0 0 0 0 0 0 0 0 0 0 0 0 0 0 0 0 0 1 1 1 1 0 0 0 0 0 0 0 0 0 0 0 0
0 0 0 0 0 0 0 0 0 0 0 0 0 0 0 0 0 0 0 0 0 0 0 0 0 0 0 0 0 0 0 0 0 0 0 0 0 0 0 0 0 0 0 0
0 0 0 0 0 0 0 0 0 0 0 0 0 0 0 0 0 0 0 0 0 0 0 0 0 0 0 0 0 0 0 0 0 0 0 0 0 0 0 0 0 0 0 0
0 0 0 0 0 0 0 0 0 0 0 0 0 0 0 0 0 0 0 0 0 0 0 0 0 0 0 0 0 0 0 0 0 0 0 0 0 0 0 0 0 0 0 0

GEFSNGP_con_prob3kmehi_180.txt.gz
EHI
0 0 0 0 0 0 0 0 0 0 0 2 5 7 8 12 16 19 26 39 51 58 59 58 58 60 62 63 60 55 53 53 53 52 50 51 55 58 57 47 37 36 36 33
0 0 0 0 0 0 0 0 0 1 3 5 7 8 12 14 15 20 29 41 51 56 57 57 57 58 61 63 62 58 54 53 53 52 49 46 49 52 51 44 36 35 33 31
0 0 0 0 0 0 1 2 3 4 7 11 12 14 17 18 19 26 37 45 51 54 55 56 57 58 59 60 62 61 56 52 51 50 46 41 41 44 44 39 37 36 34 31
0 0 0 1 1 1 3 7 8 9 12 15 16 17 18 20 26 33 41 48 52 52 52 54 57 58 56 56 59 59 54 50 48 45 41 38 37 38 37 35 36 38 35 32
0 0 1 3 4 4 7 11 13 13 15 15 14 14 16 21 29 35 40 47 49 47 46 51 55 56 54 53 54 54 50 47 45 41 37 34 33 33 33 33 35 34 30 27
0 0 2 6 9 7 8 12 15 17 17 15 11 12 19 29 35 38 40 44 45 44 46 50 53 54 53 52 52 51 48 44 42 39 36 33 32 32 33 34 34 30 23 20
0 0 3 7 9 9 12 16 18 19 20 19 16 19 28 38 43 44 43 42 44 47 50 50 50 52 53 52 50 48 46 42 40 40 38 36 36 36 35 33 31 25 19 16
1 3 7 12 13 16 22 26 24 22 23 23 22 24 32 41 46 46 45 43 44 48 50 49 49 52 53 51 48 45 43 40 39 38 36 36 38 38 36 32 26 20 15 13
4 7 13 18 21 24 27 28 27 25 25 23 23 25 31 38 42 43 43 43 44 45 44 45 47 49 50 49 46 43 41 38 35 31 29 30 32 31 29 27 21 14 11 11
8 12 17 20 23 26 25 23 23 23 22 20 22 27 32 36 38 39 40 42 43 42 42 43 44 44 45 46 45 41 37 33 28 23 22 23 22 18 17 15 13 10 9 9
10 12 15 17 21 25 24 19 16 15 15 17 21 27 32 34 36 37 39 41 42 42 43 43 41 40 41 43 42 36 30 26 23 20 19 17 13 9 8 7 6 7 7 7
11 11 10 14 20 26 25 18 13 12 14 16 22 27 30 33 34 35 36 39 39 38 38 37 36 35 36 38 37 31 25 22 20 19 18 14 9 6 4 3 2 3 3 3
10 10 9 12 19 22 20 15 13 14 16 20 25 28 29 29 29 29 30 30 28 26 26 28 30 30 30 30 29 27 23 19 17 17 16 13 9 6 4 2 1 0 0 0
6 7 8 10 14 15 13 11 12 14 16 20 23 25 25 24 24 23 23 20 18 16 18 21 23 25 24 23 22 22 20 17 15 14 13 12 10 8 6 4 2 0 0 0
2 3 4 6 8 9 9 10 12 13 13 15 17 19 20 20 20 20 18 14 12 13 14 15 16 18 19 18 17 16 15 14 13 11 9 8 8 7 6 4 2 1 0 0
1 1 2 3 5 6 8 9 10 11 11 11 11 13 16 18 18 18 16 12 11 12 12 12 12 12 13 13 11 10 8 7 7 7 5 4 5 5 6 5 4 2 1 0
2 2 2 3 4 5 6 7 8 9 9 10 10 11 12 14 15 14 13 12 11 11 11 11 11 10 10 9 7 5 3 2 2 3 2 2 3 5 6 5 4 2 1 0
2 2 1 2 3 4 5 6 6 7 8 9 9 9 9 10 10 10 10 10 10 10 10 10 10 10 10 7 6 5 4 3 2 2 2 2 3 3 4 3 2 1 1 0
1 1 0 1 2 3 4 4 4 4 5 6 7 7 7 7 7 7 7 7 7 7 8 8 8 9 9 7 6 6 5 4 3 3 3 2 1 1 2 1 1 1 1 1
0 0 0 0 1 2 3 3 3 3 3 4 5 6 6 6 6 6 6 6 6 6 6 6 7 7 7 4 4 5 5 3 2 2 3 2 1 1 2 2 1 1 1 0
0 0 0 0 0 1 3 3 3 3 3 3 4 4 5 6 6 6 6 6 5 5 5 5 5 6 5 3 2 3 4 3 3 3 3 3 3 2 3 4 3 1 0 0
0 0 1 0 0 1 3 3 3 3 3 3 3 3 4 4 4 4 4 4 3 3 4 4 4 3 3 3 3 3 3 3 3 3 3 3 3 3 4 4 3 1 0 0
0 0 0 0 0 1 2 3 3 3 3 3 3 3 3 3 2 2 2 2 2 1 2 2 1 1 1 3 3 3 3 3 3 2 2 2 2 2 2 2 2 1 0 0
0 0 0 0 0 1 1 2 2 2 2 2 2 2 2 1 1 0 1 1 1 0 1 1 0 0 1 2 2 2 2 2 1 1 1 1 1 1 1 1 1 1 0 0
0 0 0 0 0 0 0 1 1 1 1 1 1 1 1 0 0 0 0 0 0 0 0 0 0 0 0 1 1 1 1 1 0 0 0 0 0 0 0 0 1 1 0 0
0 0 0 0 0 0 0 0 0 0 0 0 0 0 0 0 0 0 0 0 0 0 0 0 0 0 0 0 0 0 0 0 0 0 0 0 0 0 0 0 0 0 0 0
0 0 0 0 0 0 0 0 0 0 0 0 0 0 0 0 0 0 0 0 0 0 0 0 0 0 0 0 0 0 0 0 0 0 0 0 0 0 0 0 0 0 0 0

GEFSNGP_con_prob3kmehi_186.txt.gz
EHI
0 0 0 0 0 0 0 0 0 0 0 1 2 5 10 20 32 40 42 43 45 47 48 50 49 48 46 44 42 40 41 41 38 34 32 26 19 17 17 16 12 8 4 4
0 0 0 0 0 0 0 0 0 0 0 2 5 9 15 21 29 35 38 40 43 45 47 47 47 47 45 42 41 40 41 42 40 34 30 24 19 18 18 17 14 9 6 5
0 0 0 0 0 0 1 2 2 2 4 7 11 13 16 21 25 28 30 34 39 41 41 42 43 43 41 41 40 39 40 40 38 32 25 20 17 15 15 14 13 10 7 6
0 0 0 0 1 2 4 5 5 7 10 13 15 15 16 20 23 26 28 31 34 36 36 37 38 37 36 37 37 35 35 35 32 27 21 15 13 11 10 10 10 9 7 7
0 0 0 0 1 3 5 7 9 12 14 16 17 17 18 21 24 26 30 32 33 35 36 36 35 34 34 32 30 29 29 29 26 23 18 14 12 10 8 8 8 8 7 6
0 0 0 0 2 3 4 6 9 12 15 16 17 17 19 23 25 27 31 33 35 38 39 37 35 35 32 27 25 24 24 25 22 19 15 13 11 8 7 7 8 9 9 8
0 0 0 1 3 4 3 4 6 10 14 16 16 16 18 22 26 29 31 33 35 39 40 38 35 32 28 23 20 20 21 21 19 15 12 11 9 7 7 7 8 9 9 9
0 0 0 1 2 3 3 3 5 11 15 17 16 17 17 19 21 25 29 31 33 35 36 33 30 27 23 19 18 19 20 20 17 14 11 9 8 7 7 8 8 8 7 7
0 0 0 1 1 3 4 6 10 15 18 17 16 16 17 17 17 20 27 31 31 30 30 28 26 23 18 16 16 19 20 19 16 13 10 8 7 7 7 8 7 6 5 5
0 0 0 0 1 4 7 10 14 16 16 15 14 14 15 17 18 22 28 29 28 27 27 26 24 20 15 13 14 16 17 15 13 11 8 6 6 6 6 6 4 4 3 3
0 0 0 0 1 4 8 11 13 13 13 13 13 13 15 18 22 25 28 26 24 25 25 24 21 17 15 13 13 13 13 12 10 9 6 4 3 3 3 3 1 1 2 1
0 0 0 0 1 3 6 8 8 9 10 12 15 16 17 20 24 25 24 20 19 19 19 18 17 15 14 14 13 12 11 10 9 7 4 2 1 1 1 1 0 0 0 0
0 0 0 1 1 3 5 6 7 8 10 13 16 18 18 21 23 22 19 15 14 14 14 14 12 11 12 12 12 12 10 9 7 5 2 1 0 0 0 0 0 0 0 0
0 0 0 1 2 3 5 7 8 9 11 13 15 16 16 17 18 16 13 10 10 10 10 9 8 8 9 11 10 10 9 7 5 2 1 0 0 0 0 0 0 0 0 0
0 0 0 1 1 2 4 7 9 10 11 12 13 13 12 13 13 12 9 7 7 6 5 5 5 6 7 8 8 6 5 4 2 1 0 0 0 0 0 0 0 0 0 0
1 0 0 0 0 1 4 7 9 9 9 10 11 11 10 10 10 9 8 6 4 3 3 2 3 3 3 4 4 3 1 1 1 0 0 0 0 0 0 0 0 0 0 0
1 0 0 0 0 2 5 7 7 7 7 8 8 9 9 8 7 6 5 4 2 1 1 1 1 1 1 1 1 1 0 0 0 0 0 0 0 0 0 0 0 0 0 0
1 0 0 0 0 1 4 6 6 6 6 6 6 6 5 4 3 2 1 1 1 0 0 0 0 0 0 0 0 0 0 0 0 0 0 0 0 0 0 0 0 0 0 0
0 0 0 0 0 1 2 3 3 3 4 4 4 4 3 2 1 1 0 0 0 0 0 0 0 0 0 0 0 0 0 0 0 0 0 0 0 0 0 0 0 0 0 0
0 0 0 0 0 0 1 1 1 1 2 3 3 3 3 2 2 2 1 1 0 0 0 0 0 0 0 0 0 0 0 0 0 0 0 0 0 0 0 0 0 0 0 0
0 0 0 0 0 0 0 0 0 0 1 2 2 2 2 2 2 2 2 1 0 0 0 0 0 0 0 0 0 0 0 0 0 0 0 0 0 0 0 0 0 0 0 0
0 0 0 0 0 0 0 0 0 0 0 1 1 1 1 1 1 1 1 1 0 0 0 0 0 0 0 0 0 0 0 0 0 0 0 0 0 0 0 0 0 0 0 0
0 0 0 0 0 0 0 0 0 0 0 0 0 0 0 0 0 0 0 0 0 0 0 0 0 0 0 0 0 0 0 0 0 0 0 0 0 0 0 0 0 0 0 0
0 0 0 0 0 0 0 0 0 0 0 0 0 0 0 0 0 0 0 0 0 0 0 0 0 0 0 0 0 0 0 0 0 0 0 0 0 0 0 0 0 0 0 0
0 0 0 0 0 0 0 0 0 0 0 0 0 0 0 0 0 0 0 0 0 0 0 0 0 0 0 0 0 0 0 0 0 0 0 0 0 0 0 0 0 0 0 0
0 0 0 0 0 0 0 0 0 0 0 0 0 0 0 0 0 0 0 0 0 0 0 0 0 0 0 0 0 0 0 0 0 0 0 0 0 0 0 0 0 0 0 0
0 0 0 0 0 0 0 0 0 0 0 0 0 0 0 0 0 0 0 0 0 0 0 0 0 0 0 0 0 0 0 0 0 0 0 0 0 0 0 0 0 0 0 0

GEFSNGP_con_prob3kmehi_192.txt.gz
EHI
0 0 0 0 0 0 0 0 0 0 0 1 3 5 9 14 21 25 21 15 14 19 23 25 27 28 27 29 33 35 35 34 30 27 24 23 19 14 11 8 8 7 5 2
0 0 0 0 0 0 0 0 0 0 0 1 3 6 10 15 21 24 20 15 14 17 23 26 27 27 27 30 32 32 33 32 29 26 24 23 21 17 13 9 7 7 6 4
0 0 0 0 0 0 0 0 0 0 1 3 4 5 8 13 17 19 18 16 14 17 22 25 25 26 28 31 30 29 29 29 27 24 23 22 21 18 14 8 5 6 5 4
0 0 0 0 0 0 0 1 1 2 3 4 5 5 5 7 10 11 13 14 14 16 19 20 21 23 27 28 27 25 25 25 23 22 21 20 19 16 11 6 4 4 4 4
0 0 0 1 0 0 1 2 2 3 4 6 7 7 5 4 5 7 9 10 11 13 14 15 17 22 26 24 21 19 19 18 18 18 17 17 15 12 8 6 4 3 3 3
0 0 0 0 0 0 1 1 2 3 5 6 6 6 5 3 5 7 7 8 11 13 13 14 18 23 25 21 17 14 12 14 14 12 12 13 13 10 7 5 3 3 3 3
0 0 0 0 0 0 0 0 1 3 6 5 4 4 3 3 6 8 7 8 11 12 13 15 18 22 23 19 15 12 10 11 10 8 7 9 10 9 6 3 2 2 2 2
0 0 0 0 1 0 0 0 1 3 5 4 3 2 2 3 6 7 6 6 8 10 11 13 16 19 21 18 15 13 12 11 8 5 4 6 7 7 5 3 3 3 3 2
0 0 0 0 0 0 0 1 2 3 4 4 3 2 2 4 8 8 7 7 8 9 10 12 14 16 18 17 16 14 13 10 5 2 3 4 6 5 4 4 4 4 3 3
0 0 0 0 0 0 0 1 3 4 4 4 3 3 5 8 10 10 11 12 13 13 13 13 13 13 14 16 16 16 14 9 4 1 2 4 4 4 3 3 3 3 3 2
0 0 0 0 0 0 2 3 4 5 4 3 4 5 7 10 11 10 11 15 17 17 16 13 11 10 11 14 16 17 15 9 3 2 2 3 3 3 2 1 1 1 1 1
0 0 0 0 0 1 3 5 5 5 4 4 5 7 9 11 10 7 8 12 17 19 16 12 9 8 9 11 13 15 14 8 4 2 2 2 2 1 1 0 0 0 0 0
0 0 0 0 0 1 2 4 4 4 4 5 6 8 11 11 8 6 5 8 12 15 14 10 6 5 5 7 10 12 10 7 3 1 1 0 0 0 0 0 0 0 0 0
0 0 0 0 0 0 1 1 2 3 5 6 7 9 11 9 6 5 5 7 9 9 9 7 4 2 2 3 6 8 7 4 2 1 0 0 0 0 0 0 0 0 0 0
0 0 0 0 0 0 0 1 2 3 5 6 7 8 8 6 4 4 6 7 8 7 6 4 2 1 0 1 3 3 3 2 1 1 0 0 0 0 0 0 0 0 0 0
0 0 0 0 0 0 0 1 2 3 4 5 5 5 6 5 4 3 4 6 6 5 4 3 2 1 1 1 1 1 1 0 0 0 0 0 0 0 0 0 0 0 0 0
0 0 0 0 0 0 0 1 2 4 5 5 4 4 4 5 4 3 3 3 3 3 3 2 2 2 2 2 2 1 0 0 0 0 0 0 0 0 0 0 0 0 0 0
0 0 0 1 1 1 2 3 4 5 6 5 4 3 3 3 2 1 1 1 1 1 1 1 1 1 1 1 1 1 0 0 0 0 0 0 0 0 0 0 0 0 0 0
0 0 0 1 3 4 4 5 5 5 5 4 4 3 2 2 1 1 0 0 0 0 0 0 0 0 0 0 0 0 0 0 0 0 0 0 0 0 0 0 0 0 0 0
0 0 0 1 2 4 4 4 4 4 4 3 3 3 3 2 2 2 1 0 0 0 0 0 0 0 0 0 0 0 0 0 0 0 0 0 0 0 0 0 0 0 0 0
0 0 0 0 1 2 3 3 3 3 3 3 3 3 3 3 3 3 2 1 0 0 0 0 0 0 0 0 0 0 0 0 0 0 0 0 0 0 0 0 0 0 0 0
0 0 0 0 0 1 1 2 2 2 2 2 2 2 2 2 2 2 2 1 0 0 0 0 0 0 0 0 0 0 0 0 0 0 0 0 0 0 0 0 0 0 0 0
0 0 0 0 0 0 0 1 1 1 1 1 1 1 1 1 1 1 1 0 0 0 0 0 0 0 0 0 0 0 0 0 0 0 0 0 0 0 0 0 0 0 0 0
0 0 0 0 0 0 0 0 0 0 0 0 0 0 0 0 0 0 0 0 0 0 0 0 0 0 0 0 0 0 0 0 0 0 0 0 0 0 0 0 0 0 0 0
0 0 0 0 0 0 0 0 0 0 0 0 0 0 0 0 0 0 0 0 0 0 0 0 0 0 0 0 0 0 0 0 0 0 0 0 0 0 0 0 0 0 0 0
0 0 0 0 0 0 0 0 0 0 0 0 0 0 0 0 0 0 0 0 0 0 0 0 0 0 0 0 0 0 0 0 0 0 0 0 0 0 0 0 0 0 0 0
0 0 0 0 0 0 0 0 0 0 0 0 0 0 0 0 0 0 0 0 0 0 0 0 0 0 0 0 0 0 0 0 0 0 0 0 0 0 0 0 0 0 0 0

GEFSNGP_con_prob3kmehi_198.txt.gz
EHI
0 0 0 0 0 0 0 0 0 0 0 2 4 7 13 18 20 22 26 31 34 36 36 36 39 42 42 42 42 44 49 49 42 36 35 33 32 31 30 30 28 26 23 19
0 0 0 0 0 0 0 0 0 0 1 3 5 8 14 19 21 22 24 27 32 36 35 32 34 38 41 42 43 45 48 49 43 36 33 33 35 36 36 35 33 28 24 23
0 0 0 0 0 0 0 0 0 0 2 4 6 10 16 22 24 24 23 24 28 32 33 31 30 36 41 44 44 43 43 44 42 36 32 33 37 40 41 40 37 31 25 24
0 0 0 0 0 0 0 0 0 2 3 4 7 11 18 23 26 28 27 25 26 28 31 30 30 34 39 43 43 41 37 36 36 34 32 34 38 41 42 40 37 32 26 24
0 0 0 0 0 0 0 0 2 4 5 6 8 11 17 22 26 29 30 28 26 25 28 29 29 31 35 39 40 37 32 31 33 32 32 34 37 39 38 37 34 30 26 24
0 0 0 0 0 0 0 1 5 7 7 8 9 11 15 20 23 26 28 28 25 24 27 30 30 30 33 37 39 36 31 31 34 33 30 30 33 34 34 32 29 27 25 23
0 0 0 0 0 1 2 5 7 9 9 9 10 13 15 18 21 23 26 26 22 21 26 32 33 32 35 38 40 37 34 33 34 32 27 25 27 30 30 27 26 26 24 21
0 0 1 1 2 4 8 9 9 8 8 10 12 14 14 15 18 19 21 23 22 21 25 32 35 36 39 40 38 36 34 33 32 30 25 22 24 25 24 22 21 22 21 17
1 1 3 4 6 10 12 12 9 6 7 11 13 12 10 13 16 16 16 19 22 22 24 30 35 37 37 35 33 33 32 31 30 28 24 21 22 21 20 19 17 17 16 14
4 4 4 6 9 12 12 10 8 5 6 9 10 9 8 12 15 15 14 16 21 24 25 28 31 32 32 32 31 31 31 30 28 26 23 20 19 17 16 15 15 14 12 11
5 5 5 7 10 11 10 7 5 6 7 7 7 7 8 10 13 13 13 16 21 25 25 26 26 27 29 30 31 31 30 29 26 23 20 17 14 10 9 9 9 9 8 6
2 3 4 6 8 8 7 4 3 6 8 6 5 6 7 8 10 11 12 16 21 25 25 25 24 24 24 27 29 30 30 28 24 20 16 13 9 4 2 2 3 3 3 2
0 1 2 3 4 5 4 3 3 6 7 5 4 5 6 8 10 11 12 16 21 23 25 25 23 20 20 22 25 27 28 27 22 17 13 10 5 2 1 1 1 0 0 0
0 0 0 1 2 3 3 3 4 6 6 5 5 5 7 9 11 12 13 16 20 22 24 24 21 18 17 20 23 25 25 23 18 15 12 8 5 4 2 2 1 1 0 0
0 0 0 1 1 2 3 3 3 4 4 4 5 6 7 8 10 12 14 16 19 20 21 20 18 16 16 18 21 23 21 18 14 12 9 7 5 5 3 2 1 1 2 1
0 0 0 0 0 1 1 1 1 2 2 3 4 5 6 6 7 9 11 14 16 16 15 15 14 14 15 17 18 19 17 12 9 8 7 6 5 4 3 2 2 2 2 2
0 0 0 0 0 0 1 1 1 1 2 2 3 5 6 5 5 6 7 9 10 10 9 9 11 12 14 14 14 14 11 8 6 6 6 5 5 4 3 2 2 1 1 1
0 0 0 0 0 1 1 2 2 2 2 2 3 4 5 4 2 2 3 5 6 7 6 6 7 10 12 11 10 8 7 6 5 5 4 4 4 3 2 1 1 0 0 0
0 0 0 0 0 1 1 1 1 1 1 1 1 1 2 2 1 1 3 4 5 6 5 4 5 7 9 8 6 5 4 3 3 3 3 2 2 1 1 0 0 0 0 0
0 0 0 0 0 0 0 0 0 0 0 0 1 1 0 0 1 2 3 3 4 4 3 3 3 4 5 4 3 3 2 1 1 1 1 1 1 0 0 0 0 0 0 0
0 0 0 0 0 0 0 0 0 0 0 1 1 1 0 0 1 2 2 1 1 1 1 1 2 2 2 1 0 1 1 0 0 0 0 0 0 0 0 0 0 0 0 0
0 0 0 0 0 0 1 1 1 1 1 2 2 1 0 0 0 1 1 0 0 0 0 0 1 1 1 0 0 0 0 0 0 0 0 0 0 0 0 0 0 0 0 0
0 0 0 0 0 0 1 2 2 2 2 2 1 0 0 0 0 0 0 0 0 0 0 0 0 0 0 0 0 0 0 0 0 0 0 0 0 0 0 0 0 0 0 0
0 0 0 0 0 0 1 1 1 1 1 1 1 0 0 0 0 0 0 0 0 0 0 0 0 0 0 0 0 0 0 0 0 0 0 0 0 0 0 0 0 0 0 0
0 0 0 0 0 0 0 0 0 0 0 0 0 0 0 0 0 0 0 0 0 0 0 0 0 0 0 0 0 0 0 0 0 0 0 0 0 0 0 0 0 0 0 0
0 0 0 0 0 0 0 0 0 0 0 0 0 0 0 0 0 0 0 0 0 0 0 0 0 0 0 0 0 0 0 0 0 0 0 0 0 0 0 0 0 0 0 0
0 0 0 0 0 0 0 0 0 0 0 0 0 0 0 0 0 0 0 0 0 0 0 0 0 0 0 0 0 0 0 0 0 0 0 0 0 0 0 0 0 0 0 0

GEFSNGP_con_prob3kmehi_204.txt.gz
EHI
0 1 1 1 0 0 0 0 0 1 4 8 12 17 22 28 33 36 39 44 52 55 56 60 63 65 67 69 70 70 70 70 69 66 62 57 51 50 54 56 52 48 45 43
0 0 1 1 0 0 0 0 0 2 6 9 13 20 26 31 36 40 41 45 50 52 54 58 62 63 64 66 69 69 67 67 66 63 59 55 51 51 54 55 51 46 42 39
0 0 0 0 0 0 1 2 2 6 9 12 17 26 33 35 38 42 43 46 49 50 53 56 58 57 56 58 62 64 62 60 60 58 56 54 52 53 55 53 49 44 39 36
0 0 0 0 0 0 1 3 6 9 12 15 22 30 35 37 39 42 43 46 49 49 51 54 53 51 49 50 54 56 54 54 54 54 54 53 52 51 53 51 46 41 36 35
0 0 0 1 1 1 2 4 9 12 13 16 23 30 35 39 42 44 43 44 46 46 49 52 51 48 47 47 49 50 49 50 51 52 53 52 50 48 47 45 40 35 33 33
0 0 1 2 3 3 3 6 12 16 18 21 26 32 37 42 46 46 44 42 42 43 46 50 50 47 46 46 46 47 48 49 50 51 52 50 48 45 43 38 34 32 31 30
0 1 3 5 6 7 10 15 19 22 26 30 33 37 39 42 45 45 42 40 39 40 45 47 45 43 44 44 43 44 46 48 49 48 47 46 45 42 38 34 32 32 30 27
1 3 7 12 14 19 25 28 28 26 28 31 34 35 37 40 42 41 39 37 36 37 41 42 39 38 40 40 41 43 46 46 44 43 41 41 40 38 34 31 29 29 26 21
4 7 13 18 22 27 32 32 29 26 24 25 28 30 34 38 39 38 35 34 33 32 33 34 33 33 36 38 40 44 45 43 41 39 38 37 35 33 30 26 24 24 20 16
9 11 14 18 21 23 25 24 24 23 22 23 25 27 32 36 37 35 35 33 30 28 26 27 28 30 34 37 40 43 43 41 38 36 34 32 28 24 21 19 18 18 17 15
10 10 12 14 14 14 15 16 17 19 21 23 24 26 29 31 32 32 34 31 28 26 25 25 28 30 32 34 37 39 41 40 36 31 28 23 17 12 10 10 10 12 14 14
9 9 10 11 10 8 9 12 14 16 19 20 20 22 23 24 25 27 28 27 24 24 25 26 28 29 29 30 32 35 37 36 31 25 20 15 10 6 4 3 2 5 8 9
7 8 9 9 7 5 8 12 14 15 16 15 15 15 16 18 20 21 21 20 19 21 24 26 26 26 26 28 31 34 34 30 26 22 16 13 9 6 3 1 0 1 2 2
6 7 7 7 6 5 7 11 15 16 14 13 13 14 14 16 17 17 15 15 16 19 24 26 25 23 24 28 31 32 29 25 22 19 15 12 10 8 4 2 0 0 0 0
4 5 6 6 5 5 5 8 12 14 12 10 10 12 15 17 17 15 13 14 16 20 23 25 23 22 24 27 28 27 24 20 18 16 13 11 10 8 5 3 1 1 1 1
4 4 5 6 5 5 4 5 8 9 8 6 6 8 12 17 18 15 13 15 17 20 21 21 20 19 20 22 22 21 18 15 13 12 11 10 9 7 6 5 3 2 2 2
3 3 3 4 5 6 6 5 6 7 5 3 4 5 9 14 16 13 12 13 15 17 17 17 16 15 15 16 16 16 14 12 10 10 10 10 9 9 9 7 5 3 1 1
1 1 1 1 3 5 4 3 4 5 4 2 3 4 7 10 12 11 9 10 12 13 14 13 11 10 10 12 13 14 13 11 10 9 9 9 9 8 8 7 4 2 1 0
0 0 0 0 1 2 1 1 2 3 3 3 3 3 5 7 9 9 9 10 10 11 11 9 6 6 7 9 10 12 12 11 10 10 9 8 7 6 5 3 2 1 0 0
1 1 0 0 0 0 0 0 1 3 3 3 3 4 4 6 7 8 10 10 9 9 8 6 4 5 6 5 6 10 11 10 9 9 8 7 6 4 2 1 0 0 0 0
0 0 0 0 0 0 0 1 2 3 4 4 4 5 6 6 7 9 9 9 8 6 5 4 4 5 5 4 4 8 10 9 8 7 6 6 4 2 1 0 0 0 0 0
0 0 0 0 0 0 0 1 2 3 4 5 5 5 5 6 7 8 8 7 5 3 3 3 2 2 2 2 3 5 6 6 6 5 4 3 2 0 0 0 0 0 0 0
0 0 0 0 0 0 0 1 1 1 2 3 3 3 3 4 5 5 4 4 2 1 1 1 1 0 0 1 2 3 4 4 4 3 2 1 0 0 0 0 0 0 0 0
0 0 0 0 0 0 1 1 1 0 0 1 1 1 1 2 2 2 1 1 1 0 0 0 0 0 1 2 3 3 3 2 2 1 1 0 0 0 0 0 0 0 0 0
0 0 0 0 1 1 1 1 1 0 0 0 0 0 0 0 0 0 0 0 0 0 0 0 0 0 1 2 2 2 1 1 1 0 0 0 0 0 0 0 0 0 0 0
0 0 0 0 2 2 1 0 0 0 0 0 0 0 0 0 0 0 0 0 0 0 0 0 0 0 1 1 1 1 0 0 0 0 0 0 0 0 0 0 0 0 0 0
0 0 0 0 1 2 1 0 0 0 0 0 0 0 0 0 0 0 0 0 0 0 0 0 0 0 0 0 0 0 0 0 0 0 0 0 0 0 0 0 0 0 0 0